When you browse on this site, cookies collect data to enhance your experience and personalize the content and advertising you see.
Visit our Privacy Policy to learn more. By continuing to use the site, you agree to this use of cookies and data.
EN

Hourly Weather Alice Springs

Today, 11 August, Tuesday

Time Temperature Precipitation Wind Pressure Humidity
00:00 +15°C° 0 mm 7 mps 707 mmHg 27%
01:00 +15°C° 0 mm 7 mps 707 mmHg 28%
02:00 +13°C° 0 mm 8 mps 707 mmHg 29%
03:00 +13°C° 0 mm 8 mps 707 mmHg 29%
04:00 +13°C° 0 mm 8 mps 707 mmHg 30%
05:00 +13°C° 0 mm 8 mps 707 mmHg 30%
06:00 +12°C° 0 mm 9 mps 707 mmHg 30%
07:00 +15°C° 0 mm 9 mps 708 mmHg 29%
08:00 +16°C° 0 mm 9 mps 708 mmHg 27%
09:00 +17°C° 0 mm 9 mps 709 mmHg 26%
10:00 +18°C° 0.1 mm 9 mps 708 mmHg 28%
11:00 +21°C° 0.1 mm 9 mps 708 mmHg 31%
12:00 +22°C° 0.1 mm 9 mps 708 mmHg 33%
13:00 +23°C° 0 mm 9 mps 707 mmHg 34%
14:00 +26°C° 0 mm 9 mps 707 mmHg 35%
15:00 +27°C° 0 mm 9 mps 706 mmHg 37%
16:00 +26°C° 0 mm 8 mps 706 mmHg 42%
17:00 +23°C° 0 mm 6 mps 706 mmHg 48%
18:00 +22°C° 0 mm 5 mps 706 mmHg 54%
19:00 +21°C° 0 mm 4 mps 706 mmHg 59%
20:00 +20°C° 0 mm 4 mps 707 mmHg 64%
21:00 +18°C° 0 mm 4 mps 707 mmHg 70%
22:00 +18°C° 0 mm 4 mps 707 mmHg 69%
23:00 +18°C° 0 mm 4 mps 707 mmHg 69%

Tomorrow, 12 August, Wednesday

Time Temperature Precipitation Wind Pressure Humidity
00:00 +17°C° 0 mm 5 mps 707 mmHg 69%
01:00 +17°C° 0 mm 4 mps 707 mmHg 70%
02:00 +16°C° 0 mm 3 mps 707 mmHg 72%
03:00 +14°C° 0 mm 2 mps 707 mmHg 73%
04:00 +14°C° 0 mm 2 mps 707 mmHg 74%
05:00 +13°C° 0 mm 2 mps 707 mmHg 74%
06:00 +12°C° 0 mm 1 mps 707 mmHg 74%
07:00 +15°C° 0 mm 2 mps 708 mmHg 63%
08:00 +18°C° 0 mm 2 mps 709 mmHg 51%
09:00 +20°C° 0 mm 2 mps 710 mmHg 40%
10:00 +22°C° 0 mm 3 mps 709 mmHg 35%
11:00 +25°C° 0 mm 4 mps 709 mmHg 30%
12:00 +27°C° 0 mm 5 mps 709 mmHg 26%
13:00 +27°C° 0 mm 6 mps 708 mmHg 24%
14:00 +28°C° 0 mm 6 mps 707 mmHg 22%
15:00 +29°C° 0 mm 7 mps 707 mmHg 20%
16:00 +27°C° 0 mm 6 mps 706 mmHg 23%
17:00 +25°C° 0 mm 5 mps 706 mmHg 25%
18:00 +23°C° 0 mm 4 mps 706 mmHg 28%
19:00 +21°C° 0 mm 3 mps 707 mmHg 31%
20:00 +20°C° 0 mm 3 mps 707 mmHg 33%
21:00 +18°C° 0 mm 2 mps 707 mmHg 36%
22:00 +17°C° 0 mm 2 mps 707 mmHg 39%
23:00 +16°C° 0 mm 2 mps 707 mmHg 41%

Day after tomorrow, 13 August, Thursday

Time Temperature Precipitation Wind Pressure Humidity
00:00 +15°C° 0 mm 2 mps 707 mmHg 44%
01:00 +16°C° 0 mm 1 mps 707 mmHg 43%
02:00 +16°C° 0 mm 1 mps 706 mmHg 42%
03:00 +18°C° 0 mm 1 mps 706 mmHg 42%
04:00 +16°C° 0 mm 1 mps 706 mmHg 44%
05:00 +16°C° 0 mm 1 mps 706 mmHg 46%
06:00 +14°C° 0 mm 0 mps 707 mmHg 49%
07:00 +18°C° 0 mm 1 mps 707 mmHg 43%
08:00 +21°C° 0 mm 1 mps 707 mmHg 37%
09:00 +23°C° 0 mm 2 mps 708 mmHg 31%
10:00 +23°C° 0 mm 4 mps 708 mmHg 31%
11:00 +25°C° 0 mm 5 mps 707 mmHg 31%
12:00 +27°C° 0 mm 7 mps 707 mmHg 31%
13:00 +27°C° 0 mm 7 mps 706 mmHg 31%
14:00 +27°C° 0 mm 6 mps 706 mmHg 31%
15:00 +27°C° 0 mm 6 mps 705 mmHg 31%
16:00 +26°C° 0 mm 6 mps 705 mmHg 28%
17:00 +25°C° 0 mm 5 mps 705 mmHg 24%
18:00 +25°C° 0 mm 5 mps 705 mmHg 21%
19:00 +21°C° 0 mm 4 mps 706 mmHg 30%
20:00 +18°C° 0 mm 3 mps 706 mmHg 39%
21:00 +15°C° 0 mm 1 mps 706 mmHg 48%
22:00 +15°C° 0 mm 2 mps 706 mmHg 48%
23:00 +14°C° 0 mm 3 mps 707 mmHg 48%

14 August, Friday

Time Temperature Precipitation Wind Pressure Humidity
00:00 +14°C° 0 mm 4 mps 707 mmHg 48%
01:00 +13°C° 0 mm 3 mps 706 mmHg 52%
02:00 +12°C° 0 mm 3 mps 706 mmHg 57%
03:00 +13°C° 0 mm 2 mps 706 mmHg 61%
04:00 +12°C° 0 mm 2 mps 706 mmHg 63%
05:00 +12°C° 0 mm 2 mps 707 mmHg 64%
06:00 +11°C° 0 mm 3 mps 707 mmHg 66%
07:00 +13°C° 0 mm 3 mps 708 mmHg 59%
08:00 +16°C° 0 mm 3 mps 709 mmHg 52%
09:00 +18°C° 0 mm 4 mps 709 mmHg 45%
10:00 +19°C° 0 mm 4 mps 709 mmHg 40%
11:00 +21°C° 0 mm 3 mps 709 mmHg 35%
12:00 +22°C° 0 mm 3 mps 709 mmHg 30%
13:00 +23°C° 0 mm 4 mps 709 mmHg 27%
14:00 +25°C° 0 mm 4 mps 708 mmHg 24%
15:00 +25°C° 0 mm 4 mps 708 mmHg 21%
16:00 +23°C° 0 mm 4 mps 708 mmHg 23%
17:00 +21°C° 0 mm 4 mps 708 mmHg 26%
18:00 +19°C° 0 mm 4 mps 708 mmHg 28%
19:00 +18°C° 0 mm 4 mps 709 mmHg 31%
20:00 +15°C° 0 mm 4 mps 709 mmHg 35%
21:00 +14°C° 0 mm 3 mps 709 mmHg 38%
22:00 +13°C° 0 mm 3 mps 709 mmHg 39%
23:00 +12°C° 0 mm 3 mps 709 mmHg 41%

15 August, Saturday

Time Temperature Precipitation Wind Pressure Humidity
00:00 +11°C° 0 mm 3 mps 710 mmHg 42%
01:00 +11°C° 0 mm 3 mps 709 mmHg 44%
02:00 +10°C° 0 mm 3 mps 709 mmHg 46%
03:00 +10°C° 0 mm 4 mps 709 mmHg 48%
04:00 +9°C° 0 mm 3 mps 710 mmHg 51%
05:00 +9°C° 0 mm 3 mps 710 mmHg 55%
06:00 +8°C° 0 mm 3 mps 711 mmHg 59%
07:00 +10°C° 0 mm 4 mps 711 mmHg 52%
08:00 +13°C° 0 mm 5 mps 712 mmHg 45%
09:00 +15°C° 0 mm 6 mps 712 mmHg 38%
10:00 +16°C° 0 mm 5 mps 712 mmHg 34%
11:00 +19°C° 0 mm 5 mps 712 mmHg 31%
12:00 +20°C° 0 mm 5 mps 712 mmHg 27%
13:00 +21°C° 0 mm 4 mps 711 mmHg 25%
14:00 +21°C° 0 mm 3 mps 710 mmHg 23%
15:00 +23°C° 0 mm 2 mps 710 mmHg 21%
16:00 +20°C° 0 mm 3 mps 710 mmHg 24%
17:00 +19°C° 0 mm 3 mps 710 mmHg 27%
18:00 +17°C° 0 mm 4 mps 710 mmHg 29%
19:00 +15°C° 0 mm 4 mps 710 mmHg 33%
20:00 +14°C° 0 mm 4 mps 711 mmHg 36%
21:00 +12°C° 0 mm 3 mps 711 mmHg 40%
22:00 +12°C° 0 mm 3 mps 711 mmHg 41%
23:00 +11°C° 0 mm 3 mps 711 mmHg 43%

16 August, Sunday

Time Temperature Precipitation Wind Pressure Humidity
00:00 +11°C° 0 mm 3 mps 710 mmHg 44%
01:00 +10°C° 0 mm 3 mps 710 mmHg 45%
02:00 +10°C° 0 mm 3 mps 710 mmHg 46%
03:00 +9°C° 0 mm 3 mps 710 mmHg 47%
04:00 +9°C° 0 mm 3 mps 710 mmHg 47%
05:00 +9°C° 0 mm 3 mps 710 mmHg 47%
06:00 +9°C° 0 mm 3 mps 710 mmHg 48%
07:00 +11°C° 0 mm 3 mps 711 mmHg 42%
08:00 +14°C° 0 mm 4 mps 712 mmHg 36%
09:00 +16°C° 0 mm 5 mps 712 mmHg 30%
10:00 +19°C° 0 mm 4 mps 712 mmHg 28%
11:00 +21°C° 0 mm 3 mps 712 mmHg 25%
12:00 +24°C° 0 mm 3 mps 711 mmHg 22%
13:00 +25°C° 0 mm 3 mps 711 mmHg 21%
14:00 +26°C° 0 mm 3 mps 710 mmHg 19%
15:00 +27°C° 0 mm 3 mps 709 mmHg 17%
16:00 +25°C° 0 mm 3 mps 709 mmHg 20%
17:00 +22°C° 0 mm 3 mps 709 mmHg 23%
18:00 +20°C° 0 mm 3 mps 709 mmHg 26%
19:00 +19°C° 0 mm 3 mps 709 mmHg 30%
20:00 +17°C° 0 mm 4 mps 709 mmHg 33%
21:00 +15°C° 0 mm 4 mps 709 mmHg 36%
22:00 +15°C° 0 mm 4 mps 709 mmHg 37%
23:00 +14°C° 0 mm 4 mps 709 mmHg 38%
Show more